DW2973 Weather Reports


Display with metric or nautical units.
time (UTC)temp
F
wind
direction
speed
MPH
gust
MPH
rain 1hr
in
rain 24hr
in
rain mn
in
humidity
%
barometer
mb
20211127111519 37 91 1.0 0.0 0.00 0.00 0.17 94 993.6
20211127110044 37 88 1.0 0.0 0.00 0.00 0.17 94 993.5
20211127104520 37 59 1.0 0.0 0.00 0.00 0.17 95 993.6
20211127103017 37 71 1.0 0.0 0.00 0.00 0.17 96 993.3
20211127101514 36 95 0.0 0.0 0.00 0.00 0.17 96 993.5
20211127100010 36 129 0.0 0.0 0.00 0.00 0.17 97 993.5
20211127094514 36 91 0.0 0.0 0.00 0.00 0.17 97 993.5
20211127093011 35 76 0.0 0.0 0.00 0.00 0.17 97 993.5
20211127091520 35 79 0.0 0.0 0.00 0.00 0.17 97 993.3
20211127090015 35 106 0.0 0.0 0.00 0.00 0.17 97 993.2
20211127084503 35 82 0.0 0.0 0.00 0.00 0.17 97 993.2
20211127083001 34 87 0.0 0.0 0.00 0.00 0.17 97 993.2
20211127081706 34 74 0.0 0.0 0.00 0.00 0.17 97 993.1
20211127080136 34 72 0.0 0.0 0.00 0.00 0.17 97 992.9
20211127074647 35 71 0.0 0.0 0.00 0.00 0.17 97 992.9
20211127073058 34 61 0.0 0.0 0.00 0.00 0.16 97 993.0
20211127071625 34 80 0.0 0.0 0.00 0.00 0.16 97 992.9
20211127070122 34 63 0.0 0.0 0.00 0.00 0.16 96 992.7
20211127064755 34 95 0.0 0.0 0.00 0.00 0.16 96 992.5
20211127063055 34 87 0.0 0.0 0.00 0.00 0.16 96 992.3
20211127061605 34 95 0.0 0.0 0.00 0.00 0.16 96 992.3
20211127060110 34 111 0.0 0.0 0.00 0.00 0.16 96 992.2
20211127054600 34 165 1.0 0.0 0.00 0.00 0.15 96 992.0
20211127053206 35 103 1.0 0.0 0.00 0.00 0.15 96 992.0
20211127051545 35 71 0.0 0.0 0.00 0.00 0.15 96 992.0
20211127050113 35 72 0.0 0.0 0.00 0.00 0.14 96 991.9
20211127044600 35 117 0.0 0.0 0.00 0.00 0.14 96 992.0
20211127043114 35 143 1.0 0.0 0.00 0.00 0.14 96 991.8
20211127041549 35 80 1.0 0.0 0.00 0.00 0.14 96 991.8
20211127040052 35 61 0.0 0.0 0.00 0.00 0.13 96 991.7
20211127034555 35 110 0.0 0.0 0.00 0.00 0.13 96 991.6
20211127033100 35 63 0.0 0.0 0.00 0.00 0.13 96 991.5
20211127031602 35 119 0.0 0.0 0.00 0.00 0.13 96 991.4
20211127030102 35 86 0.0 0.0 0.00 0.00 0.12 96 991.3
20211127024600 35 80 1.0 0.0 0.00 0.00 0.12 96 991.4
20211127023102 35 100 0.0 0.0 0.00 0.00 0.11 96 991.4
20211127021543 36 165 0.0 0.0 0.00 0.00 0.11 96 991.4
20211127020050 36 69 0.0 0.0 0.00 0.00 0.10 96 991.3
20211127014523 36 123 0.0 0.0 0.00 0.00 0.09 96 991.4
20211127013032 36 74 1.0 0.0 0.00 0.00 0.09 96 991.4
20211127011521 36 112 0.0 0.0 0.00 0.00 0.08 96 991.4
20211127010035 37 98 1.0 0.0 0.00 0.00 0.08 96 991.4
20211127004520 37 105 1.0 0.0 0.00 0.00 0.06 96 991.4
20211127003023 37 115 0.0 0.0 0.00 0.00 0.06 96 991.4
20211127001606 37 94 1.0 0.0 0.00 0.00 0.05 96 991.3
20211127000021 37 101 1.0 0.0 0.00 0.00 0.04 96 991.5
20211126234516 37 167 0.0 0.0 0.00 0.00 0.03 96 991.5
20211126233012 37 86 0.0 0.0 0.00 0.00 0.02 96 991.6
20211126231527 37 144 0.0 0.0 0.00 0.00 0.01 96 991.7
20211126230006 36 94 0.0 0.0 0.00 0.00 0.00 96 991.7
20211126224506 36 105 1.0 0.0 0.00 0.00 0.12 95 991.7
20211126223037 37 119 1.0 0.0 0.00 0.00 0.11 95 991.7
20211126221503 37 129 2.0 0.0 0.00 0.00 0.10 95 991.7
20211126220006 38 144 0.0 0.0 0.00 0.00 0.09 96 991.6
20211126214509 38 133 0.0 0.0 0.00 0.00 0.09 96 991.5
20211126213002 38 123 0.0 0.0 0.00 0.00 0.08 96 991.5
20211126211502 38 132 0.0 0.0 0.00 0.00 0.08 95 991.6
20211126210001 38 155 1.0 0.0 0.00 0.00 0.08 95 991.6
20211126204716 38 125 0.0 0.0 0.00 0.00 0.07 95 991.6
20211126203214 38 126 1.0 0.0 0.00 0.00 0.06 95 991.6
20211126201721 38 92 0.0 0.0 0.00 0.00 0.06 95 991.3
20211126200216 38 121 0.0 0.0 0.00 0.00 0.06 95 991.5
20211126194648 38 121 0.0 0.0 0.00 0.00 0.05 95 991.5
20211126193208 37 146 0.0 0.0 0.00 0.00 0.04 94 991.6
20211126191737 38 134 0.0 0.0 0.00 0.00 0.04 93 991.6
20211126190148 38 145 1.0 0.0 0.00 0.00 0.03 93 991.5
20211126184623 38 140 0.0 0.0 0.00 0.00 0.03 94 991.4
20211126183156 38 136 1.0 0.0 0.00 0.00 0.03 93 991.3
20211126181638 37 126 0.0 0.0 0.00 0.00 0.03 93 991.4
20211126180135 37 166 0.0 0.0 0.00 0.00 0.03 93 991.4
20211126174656 37 137 0.0 0.0 0.00 0.00 0.03 92 991.4
20211126173141 37 131 0.0 0.0 0.00 0.00 0.03 91 991.4
20211126171642 37 111 0.0 0.0 0.00 0.00 0.03 91 991.4
20211126170108 37 114 0.0 0.0 0.00 0.00 0.03 92 991.6
20211126164649 36 136 0.0 0.0 0.00 0.00 0.03 92 991.6
20211126163105 36 148 0.0 0.0 0.00 0.00 0.03 92 991.5
20211126161657 37 149 0.0 0.0 0.00 0.00 0.03 92 991.6
20211126160103 37 133 0.0 0.0 0.00 0.00 0.03 92 991.5
20211126154633 37 108 0.0 0.0 0.00 0.00 0.03 91 991.6
20211126153236 37 137 0.0 0.0 0.00 0.00 0.03 91 991.8
20211126151642 37 144 0.0 0.0 0.00 0.00 0.03 91 991.8
20211126150113 37 144 0.0 0.0 0.00 0.00 0.03 91 991.8
20211126144708 38 157 0.0 0.0 0.00 0.00 0.03 90 991.8
20211126143104 38 142 0.0 0.0 0.00 0.00 0.03 89 991.8
20211126141736 38 143 0.0 0.0 0.00 0.00 0.03 88 991.8
20211126140107 39 126 0.0 0.0 0.00 0.00 0.03 89 991.8
20211126134618 39 119 0.0 0.0 0.00 0.00 0.03 87 991.9
20211126133218 40 199 0.0 0.0 0.00 0.00 0.03 86 991.9
20211126131712 40 190 0.0 0.0 0.00 0.00 0.03 83 992.1
20211126130153 41 188 0.0 0.0 0.00 0.00 0.03 82 992.2
20211126124734 41 186 0.0 0.0 0.00 0.00 0.03 83 992.4
20211126123114 41 193 0.0 0.0 0.00 0.00 0.03 83 992.6
20211126121715 41 192 0.0 0.0 0.00 0.00 0.03 83 992.7
20211126120132 41 213 0.0 0.0 0.00 0.00 0.03 83 992.8
20211126114558 41 214 3.0 0.0 0.00 0.00 0.03 85 992.9
20211126113216 41 188 4.0 0.0 0.00 0.00 0.03 85 993.1